Burlington, VT

8:41 AM EDT on May 24, 2018 (GMT -0400)
Burlington International

Weather History for KBTV - April, 2014

Change the Weather History Date:

Sunday, April 27, 2014

  Actual Average Record
Temperature  
Mean Temperature 42 °F 50 °F  
Max Temperature 48 °F 60 °F 90 °F (1990)
Min Temperature 36 °F 39 °F 22 °F (1972)
Degree Days  
Heating Degree Days 23 15  
Month to date heating degree days 553 567  
Since 1 July heating degree days 7340 7031  
Cooling Degree Days 0 0  
Month to date cooling degree days 0 0  
Year to date cooling degree days 0 0  
Moisture  
Dew Point 36 °F    
Average Humidity 82    
Maximum Humidity 92    
Minimum Humidity 71    
Precipitation  
Precipitation 0.14 in 0.10 in 1.18 in (1945)
Month to date precipitation 3.15 2.51  
Year to date precipitation 9.31 8.55  
Snow  
Snow 0.00 in 0.10 in 2.80 in (2010)
Month to date snowfall 2.8 4.4  
Since 1 July snowfall 86.5 81.0  
Snow Depth 0.00 in    
Sea Level Pressure  
Sea Level Pressure 30.01 in    
Wind  
Wind Speed 9 mph (NNW)    
Max Wind Speed 17 mph    
Max Gust Speed 22 mph    
Visibility 8 miles    
Events Rain    
T = Trace of Precipitation, MM = Missing Value Source: NWS Daily Summary

Daily Weather History Graph

Daily Weather History Graph

Search for Another Location

Airport or City:

Astronomy

Apr. 27, 2014 Rise Set
Actual Time 5:49 AM EDT 7:52 PM EDT
Civil Twilight 5:17 AM EDT 8:23 PM EDT
Nautical Twilight 4:38 AM EDT 9:02 PM EDT
Astronomical Twilight 3:56 AM EDT 9:45 PM EDT
Moon 4:52 AM EDT (4/27) 6:19 PM EDT (4/27)
Length of Visible Light 15h 06m
Length of Day
14h 02m
Waning Crescent, 3% of the Moon is Illuminated
Apr 27
Waning Crescent
Apr 29
New
May 6
First Quarter
May 14
Full
May 21
Last Quarter

Hourly Weather History & Observations

Time (EDT) Temp. Windchill Dew Point Humidity Pressure Visibility Wind Dir Wind Speed Gust Speed Precip Events Conditions
12:54 AM 41.0 °F 38.0 °F 37.9 °F 89% 29.87 in 10.0 mi SW 4.6 mph - 0.02 in Rain Light Rain
1:54 AM 41.0 °F 38.0 °F 37.9 °F 89% 29.87 in 8.0 mi West 4.6 mph - 0.01 in Rain Light Rain
2:07 AM 41.0 °F 37.1 °F 37.9 °F 89% 29.86 in 7.0 mi WNW 5.8 mph - 0.00 in Rain Light Rain
2:24 AM 41.0 °F 35.8 °F 37.9 °F 89% 29.86 in 8.0 mi NNW 8.1 mph - 0.01 in Rain Light Rain
2:50 AM 39.2 °F 33.0 °F 37.4 °F 93% 29.87 in 10.0 mi NNW 9.2 mph - 0.03 in Rain Light Rain
2:54 AM 39.0 °F 32.3 °F 36.0 °F 89% 29.88 in 10.0 mi NNW 10.4 mph - 0.03 in Rain Light Rain
3:22 AM 39.0 °F 32.3 °F 36.0 °F 89% 29.87 in 10.0 mi NNW 10.4 mph - 0.01 in Rain Light Rain
3:30 AM 39.0 °F 33.4 °F 35.1 °F 86% 29.87 in 10.0 mi North 8.1 mph - 0.02 in Rain Light Rain
3:41 AM 37.9 °F 32.1 °F 35.1 °F 89% 29.88 in 10.0 mi North 8.1 mph - 0.02 in Rain Light Rain
3:54 AM 37.9 °F 30.0 °F 35.1 °F 89% 29.89 in 10.0 mi NNW 12.7 mph - 0.03 in Rain Light Rain
4:20 AM 37.9 °F 31.5 °F 35.1 °F 89% 29.89 in 10.0 mi NNW 9.2 mph - 0.01 in Rain Light Rain
4:54 AM 37.0 °F 31.0 °F 34.0 °F 89% 29.91 in 4.0 mi NNW 8.1 mph - 0.01 in   Overcast
5:01 AM 37.0 °F 29.8 °F 34.0 °F 89% 29.91 in 4.0 mi NNW 10.4 mph - 0.00 in Rain Light Rain
5:18 AM 37.0 °F 30.4 °F 34.0 °F 89% 29.91 in 5.0 mi NNW 9.2 mph - 0.01 in Rain Light Rain
5:54 AM 36.0 °F 29.0 °F 34.0 °F 93% 29.94 in 6.0 mi NNW 9.2 mph - 0.02 in Rain Light Rain
6:40 AM 36.0 °F 29.6 °F 34.0 °F 93% 29.95 in 4.0 mi NNW 8.1 mph - 0.01 in Rain Light Rain
6:50 AM 35.6 °F 28.6 °F 33.8 °F 93% 29.95 in 5.0 mi NW 9.2 mph - N/A Rain Light Rain
6:54 AM 37.0 °F 31.0 °F 34.0 °F 89% 29.97 in 5.0 mi NW 8.1 mph - 0.02 in Rain Light Rain
7:54 AM 37.4 °F 30.3 °F 33.8 °F 87% 29.98 in 6.0 mi NNW 10.4 mph - N/A Rain Light Rain
8:54 AM 37.9 °F 30.9 °F 35.1 °F 89% 30.01 in 3.0 mi NNW 10.4 mph - 0.01 in Rain Light Rain
9:54 AM 37.9 °F 30.0 °F 35.1 °F 89% 30.03 in 4.0 mi NNW 12.7 mph - 0.01 in Rain Light Rain
10:01 AM 37.9 °F 30.0 °F 35.1 °F 89% 30.02 in 4.0 mi NNW 12.7 mph - 0.00 in Rain Light Rain
10:12 AM 37.9 °F 30.0 °F 35.1 °F 89% 30.02 in 4.0 mi NNW 12.7 mph - 0.00 in Rain Light Rain
10:21 AM 39.0 °F 32.3 °F 36.0 °F 89% 30.03 in 4.0 mi NNW 10.4 mph - 0.00 in Rain Light Rain
10:54 AM 39.0 °F 32.3 °F 36.0 °F 89% 30.04 in 4.0 mi NNW 10.4 mph - 0.00 in Rain Light Rain
11:17 AM 39.9 °F 32.5 °F 37.0 °F 89% 30.05 in 6.0 mi NNW 12.7 mph - 0.00 in Rain Light Rain
11:33 AM 41.0 °F 33.5 °F 37.0 °F 86% 30.05 in 6.0 mi NNW 13.8 mph - 0.00 in Rain Light Rain
11:51 AM 41.0 °F 33.9 °F 37.4 °F 87% 30.05 in 6.0 mi NNW 12.7 mph - 0.00 in Rain Light Rain
11:54 AM 41.0 °F 34.3 °F 37.4 °F 87% 30.05 in 6.0 mi North 11.5 mph - N/A Rain Light Rain
12:54 PM 41.0 °F 33.1 °F 37.0 °F 86% 30.06 in 10.0 mi North 15.0 mph - 0.00 in   Overcast
1:54 PM 42.8 °F 36.2 °F 37.4 °F 81% 30.08 in 8.0 mi North 12.7 mph - N/A   Overcast
2:46 PM 43.0 °F 37.2 °F 37.9 °F 82% 30.08 in 10.0 mi NNW 10.4 mph - N/A   Overcast
2:54 PM 43.0 °F 36.8 °F 37.9 °F 82% 30.10 in 10.0 mi North 11.5 mph - N/A   Overcast
3:54 PM 44.6 °F 37.4 °F 37.4 °F 76% 30.09 in 10.0 mi NNW 16.1 mph - N/A   Overcast
4:21 PM 45.0 °F 39.3 °F 37.0 °F 74% 30.10 in 10.0 mi North 11.5 mph - N/A   Overcast
4:52 PM 44.6 °F 38.4 °F 37.4 °F 76% 30.10 in 10.0 mi North 12.7 mph - N/A   Overcast
4:54 PM 45.0 °F 38.5 °F 37.0 °F 74% 30.11 in 10.0 mi NNW 13.8 mph - 0.00 in Rain Light Rain
5:19 PM 45.0 °F 40.1 °F 37.0 °F 74% 30.10 in 10.0 mi North 9.2 mph - 0.00 in   Mostly Cloudy
5:54 PM 46.9 °F - 36.0 °F 66% 30.11 in 10.0 mi NNW 13.8 mph - 0.00 in   Mostly Cloudy
6:54 PM 46.0 °F 39.9 °F 37.0 °F 71% 30.11 in 10.0 mi NW 13.8 mph - N/A   Mostly Cloudy
7:54 PM 44.1 °F 40.8 °F 37.0 °F 76% 30.13 in 10.0 mi NNW 5.8 mph - N/A   Mostly Cloudy
8:54 PM 43.0 °F - 39.0 °F 86% 30.15 in 10.0 mi Calm Calm - 0.00 in   Mostly Cloudy
9:54 PM 43.0 °F 39.5 °F 39.0 °F 86% 30.15 in 10.0 mi NNW 5.8 mph - N/A   Overcast
10:54 PM 42.1 °F 39.2 °F 37.9 °F 85% 30.16 in 10.0 mi NNW 4.6 mph - N/A   Scattered Clouds
11:54 PM 41.0 °F 39.0 °F 37.9 °F 89% 30.16 in 10.0 mi WNW 3.5 mph - N/A   Mostly Cloudy